Clearfield, PA

9:58 PM EST on January 22, 2017 (GMT -0500)
Clearfield-Lawrence

Weather History for KFIG - February, 2014

Change the Weather History Date:

Friday, February 21, 2014

  Actual Average (KDUJ) Record (KDUJ)
Temperature  
Mean Temperature 38 °F -  
Max Temperature 43 °F 38 °F 60 °F (1983)
Min Temperature 34 °F 20 °F -8 °F (1968)
Degree Days  
Heating Degree Days 26    
Moisture  
Dew Point 33 °F    
Average Humidity 78    
Maximum Humidity 100    
Minimum Humidity 39    
Precipitation  
Precipitation 0.17 in - - ()
Sea Level Pressure  
Sea Level Pressure 29.74 in    
Wind  
Wind Speed 10 mph (WSW)    
Max Wind Speed 30 mph    
Max Gust Speed 48 mph    
Visibility 7 miles    
Events Fog , Rain , Snow    
Averages and records for this station are not official NWS values.
T = Trace of Precipitation, MM = Missing Value Source: NWS Daily Summary

Daily Weather History Graph

Daily Weather History Graph

Search for Another Location

Airport or City:

Trip Planner

Search our weather history database for the weather conditions in past years. The results will help you decide how hot, cold, wet, or windy it might be!

Date:

Astronomy

Feb. 21, 2014 Rise Set
Actual Time 6:59 AM EST 5:55 PM EST
Civil Twilight 6:31 AM EST 6:23 PM EST
Nautical Twilight 5:59 AM EST 6:55 PM EST
Astronomical Twilight 5:28 AM EST 7:27 PM EST
Moon No Moon Rise 10:19 AM EST (2/21)
Length of Visible Light 11h 51m
Length of Day
10h 55m
Waning Gibbous, 61% of the Moon is Illuminated
Feb 21
Waning Gibbous
Feb 22
Last Quarter
Mar 1
New
Mar 8
First Quarter
Mar 16
Full

Hourly Weather History & Observations

Time (EST) Temp. Windchill Dew Point Humidity Pressure Visibility Wind Dir Wind Speed Gust Speed Precip Events Conditions
12:54 AM 39.0 °F 34.0 °F 30.0 °F 70% 29.80 in 10.0 mi NNE 6.9 mph - N/A   Scattered Clouds
1:54 AM 39.9 °F 33.9 °F 32.0 °F 73% 29.78 in 10.0 mi NE 9.2 mph - N/A   Mostly Cloudy
2:54 AM 39.0 °F 34.0 °F 33.1 °F 79% 29.75 in 10.0 mi NNE 6.9 mph - N/A   Mostly Cloudy
3:54 AM 39.0 °F 33.4 °F 34.0 °F 82% 29.73 in 10.0 mi NNE 8.1 mph - N/A   Mostly Cloudy
4:54 AM 41.0 °F 36.4 °F 35.1 °F 79% 29.71 in 10.0 mi North 6.9 mph - N/A   Overcast
5:54 AM 41.0 °F 35.8 °F 36.0 °F 82% 29.70 in 10.0 mi North 8.1 mph - 0.00 in Rain Light Rain
6:54 AM 41.0 °F 36.4 °F 37.0 °F 86% 29.68 in 10.0 mi North 6.9 mph - 0.00 in   Overcast
7:54 AM 41.0 °F 37.1 °F 37.0 °F 86% 29.66 in 10.0 mi North 5.8 mph - 0.00 in Rain Light Rain
8:54 AM 39.9 °F 36.7 °F 39.0 °F 97% 29.65 in 4.0 mi North 4.6 mph - 0.03 in Rain Rain
9:22 AM 39.9 °F 35.1 °F 39.0 °F 97% 29.60 in 2.5 mi North 6.9 mph - 0.06 in Rain Rain
9:38 AM 42.1 °F 38.4 °F 41.0 °F 96% 29.63 in 3.0 mi West 5.8 mph - 0.08 in Rain Light Rain
9:42 AM 41.0 °F 36.4 °F 41.0 °F 100% 29.64 in 1.5 mi SSW 6.9 mph - 0.08 in Rain Light Rain
9:49 AM 42.8 °F 37.5 °F 42.8 °F 100% 29.64 in 0.5 mi SW 9.2 mph - 0.10 in Fog , Rain Rain
9:50 AM 42.1 °F 36.6 °F 42.1 °F 100% 29.67 in 0.5 mi SSW 9.2 mph - 0.10 in Fog , Rain Rain
9:55 AM 41.0 °F 35.2 °F 41.0 °F 100% 29.64 in 0.2 mi SSW 9.2 mph - 0.01 in Fog , Rain Rain
10:12 AM 41.0 °F 34.3 °F 41.0 °F 100% 29.68 in 0.5 mi West 11.5 mph - 0.02 in Fog , Rain Light Rain
10:14 AM 41.0 °F - 39.9 °F 96% 29.67 in 1.0 mi North - - 0.02 in Rain Light Rain
10:17 AM 41.0 °F 29.8 °F 39.0 °F 93% 29.67 in 4.0 mi West 29.9 mph 48.3 mph 0.02 in Rain Light Rain
10:24 AM 41.0 °F 31.9 °F 37.0 °F 86% 29.69 in 10.0 mi West 19.6 mph 48.3 mph 0.02 in Rain Light Rain
10:44 AM 39.9 °F 29.5 °F 37.0 °F 89% 29.72 in 6.0 mi WSW 24.2 mph 34.5 mph 0.03 in Rain Light Rain
10:54 AM 39.0 °F 30.6 °F 36.0 °F 89% 29.79 in 5.0 mi WSW 15.0 mph 31.1 mph 0.03 in Rain Light Rain
11:33 AM 34.0 °F 25.0 °F 32.0 °F 92% 29.77 in 4.0 mi SW 12.7 mph - 0.01 in Snow Light Snow
11:54 AM 34.0 °F 26.6 °F 33.1 °F 96% 29.79 in 5.0 mi SSW 9.2 mph - 0.01 in Snow Light Snow
12:54 PM 36.0 °F 29.6 °F 33.1 °F 89% 29.73 in 10.0 mi SSW 8.1 mph - 0.00 in   Mostly Cloudy
1:54 PM 41.0 °F 32.2 °F 28.0 °F 60% 29.72 in 10.0 mi WSW 18.4 mph 28.8 mph N/A   Partly Cloudy
2:54 PM 41.0 °F 31.6 °F 27.0 °F 57% 29.73 in 10.0 mi SW 20.7 mph 29.9 mph N/A   Mostly Cloudy
3:54 PM 43.0 °F 36.4 °F 27.0 °F 53% 29.73 in 10.0 mi SW 12.7 mph 25.3 mph N/A   Scattered Clouds
4:54 PM 43.0 °F 34.8 °F 26.1 °F 51% 29.75 in 10.0 mi WSW 18.4 mph 27.6 mph N/A   Scattered Clouds
5:54 PM 43.0 °F 35.1 °F 25.0 °F 49% 29.78 in 10.0 mi SW 17.3 mph 26.5 mph N/A   Overcast
6:54 PM 41.0 °F 33.9 °F 26.1 °F 55% 29.82 in 10.0 mi WSW 12.7 mph 23.0 mph N/A   Scattered Clouds
7:54 PM 39.9 °F 32.1 °F 24.1 °F 53% 29.85 in 10.0 mi WSW 13.8 mph 19.6 mph N/A   Clear
8:54 PM 39.0 °F 31.4 °F 21.9 °F 50% 29.86 in 10.0 mi SW 12.7 mph - N/A   Clear
9:54 PM 39.0 °F 30.3 °F 21.0 °F 49% 29.87 in 10.0 mi SW 16.1 mph 24.2 mph N/A   Clear
10:54 PM 39.0 °F 29.6 °F 16.0 °F 39% 29.90 in 10.0 mi WSW 18.4 mph 27.6 mph N/A   Clear
11:54 PM 37.0 °F 27.7 °F 15.1 °F 41% 29.94 in 10.0 mi WSW 16.1 mph 24.2 mph N/A   Clear